Other Public Products
Issued by NWS Grand Forks, ND

Home | Current Version | Previous Version | Graphics & Text | Print | Product List | Glossary On
Versions: 1 2 3 4 5 6 7 8 9 10 11 12 13 14 15 16 17 18 19 20 21 22 23 24 25 26 27 28 29 30 31 32 33 34 35 36 37 38 39 40 41 42 43 44 45 46 47 48 49 50
000
FPUS83 KFGF 270031
OPUFGF
PRAIRIE TO PINES WEATHER ROUNDUP
NATIONAL WEATHER SERVICE EASTERN NORTH DAKOTA/GRAND FORKS ND
700 PM CDT MON SEP 26 2016

 **SATELLITE DATA USED TO AUGMENT SKY COVER AT AUTOMATED STATIONS**
 *****  WEATHER ACROSS EASTERN NORTH DAKOTA  *****

CITY           SKY/WX    TMP DP  RH WIND       PRES   REMARKS
GRAND FORKS    CLEAR     60  40  47 NW12      29.92S
6HR MIN TEMP:  60; 6HR MAX TEMP:  65;

GRAND FORKS AF CLEAR     60  33  35 N12       29.93S
GRAND CITY NWS NOT AVBL
BUXTON           N/A     62  38  40 NW9         N/A
DEVILS LAKE    NOT AVBL
FARGO          CLEAR     63  26  24 NW16G28   29.93S
6HR MIN TEMP:  63; 6HR MAX TEMP:  67;

WAHPETON ARPT  CLEAR     59  27  29 NW12      29.95S
$$

 *****  WEATHER ACROSS CENTRAL AND WESTERN NORTH DAKOTA  *****

CITY           SKY/WX    TMP DP  RH WIND       PRES   REMARKS
JAMESTOWN      CLEAR     60  35  39 NW16      30.00F
6HR MIN TEMP:  60; 6HR MAX TEMP:  64;

BISMARCK       CLEAR     65  35  33 NW13G23   30.09F
6HR MIN TEMP:  65; 6HR MAX TEMP:  69;

MINOT          CLEAR     62  36  37 NW14      30.06F
6HR MIN TEMP:  62; 6HR MAX TEMP:  67;

MINOT AFB      CLEAR     62  37  38 NW14      30.05S
6HR MIN TEMP:  62; 6HR MAX TEMP:  66;

GARRISON         N/A     63  36  36 NW10      30.08S
6HR MIN TEMP:  63; 6HR MAX TEMP:  67;

WILLISTON      CLOUDY    68  40  35 NW5       30.10F
6HR MIN TEMP:  66; 6HR MAX TEMP:  71;

DICKINSON      CLOUDY    62  39  42 NW6       30.14S
6HR MIN TEMP:  62; 6HR MAX TEMP:  66;

HETTINGER      CLEAR     65  38  36 NW15      30.17F
6HR MIN TEMP:  65; 6HR MAX TEMP:  69;

$$

 *****  OTHER OBSERVATIONS NORTHEAST NORTH DAKOTA  *****

CITY           SKY/WX    TMP DP  RH WIND       PRES   REMARKS
WALHALLA       FAIR      55  54  94 NW7       29.94R
LANGDON        FAIR      55  34  44 NW17G23   29.97R
CAVALIER       FAIR      57  45  62 N9        29.94R
GRAFTON        FAIR      55  43  62 NW9       29.94S
CANDO          FAIR      57  30  35 NW13      30.01F
FORT TOTTEN      N/A     61  31  32 NW9       29.95S
ROLLA          FAIR      55  30  38 NW13      30.01S
RUGBY          FAIR      57  34  41 NW10      30.02F
 ***** THE ABOVE OBSERVATIONS ARE NON NWS ARE NOT QUALITY
        CONTROLLED AND MAY MIS-REPORT RAIN FOR SNOW...
$$

 *****  OTHER OBSERVATIONS SOUTHEAST NORTH DAKOTA *****

CITY           SKY/WX    TMP DP  RH WIND       PRES   REMARKS
COOPERSTOWN    FAIR      57  34  41 NW13      29.97S
VALLEY CITY    FAIR      59  32  36 NW17G25   30.00S
OAKES          NOT AVBL
GWINNER        FAIR      63  32  31 NW12      30.00S
BUFFALO          N/A     59  23  25 NW10        N/A
WYNDMERE         N/A     63  30  29 NW8         N/A
 ***** THE ABOVE OBSERVATIONS ARE NON NWS ARE NOT QUALITY
       CONTROLLED AND MAY MIS-REPORT RAIN FOR SNOW...
$$

  *****  WEATHER ACROSS NORTHERN MINNESOTA  *****

CITY           SKY/WX    TMP DP  RH WIND       PRES   REMARKS
FLAG ISLAND    CLOUDY    52  46  82 NW26G37   29.78R
WARROAD        CLOUDY    54  46  76 NW17G29   29.83R
ROSEAU         CLOUDY    54  46  76 NW17G23   29.85S
HALLOCK        CLEAR     54  46  76 N10       29.92S
THF RVR FALLS  CLEAR     53  43  68 NW13      29.92R
6HR MIN TEMP:  53; 6HR MAX TEMP:  59;

HALSTAD          N/A     58  39  49 NW12        N/A
FOSSTON        CLEAR     52  41  66 NW10      29.91S
BAUDETTE       CLOUDY    53  45  74 NW26G35   29.78R
6HR MIN TEMP:  51; 6HR MAX TEMP:  54; 6HR PCP:  0.01;

WASKISH        CLOUDY    54  46  76 W18G30    29.81S
CROOKSTON      CLEAR     55  46  71 N9        29.92S
$$
  *****  WEATHER ACROSS CENTRAL AND WEST MINNESOTA  *****

CITY           SKY/WX    TMP DP  RH WIND       PRES   REMARKS
BEMIDJI        CLOUDY    53  41  65 W20G30    29.86S
PARK RAPIDS    CLOUDY    57  39  51 NW15      29.88R
6HR MIN TEMP:  57; 6HR MAX TEMP:  61;

WADENA         CLEAR     57  39  51 NW14G22   29.89S
DETROIT LAKES  CLEAR     55  39  54 NW15G22   29.93R
MOORHEAD       CLEAR     61  28  29 NW13G21   29.94S
FERGUS FALLS   CLEAR     59  30  33 NW16      29.95S
ELBOW LAKE     FAIR      58  32  37 NW13      29.94S
MORRIS MN      CLEAR     61  30  31 NW10      29.94S
STAPLES        CLEAR     55  37  50 NW16      29.89R
WHEATON        CLEAR     64  34  32 NW14G21   29.97S
$$
  *****  WEATHER ELSEWHERE ACROSS MINNESOTA  *****

CITY           SKY/WX    TMP DP  RH WIND       PRES   REMARKS
DULUTH         LGT RAIN  52  45  77 W18G30    29.73F
6HR MIN TEMP:  50; 6HR MAX TEMP:  54; 6HR PCP:  0.01;

INTRNTL FALLS  LGT RAIN  50  48  93 W16G23    29.71R
6HR MIN TEMP:  50; 6HR MAX TEMP:  51; 6HR PCP:  0.26;

ELY            LGT RAIN  48  46  93 W15G28    29.65S
CLOQUET        CLOUDY    54  39  58 W22G32    29.76F
BRAINERD       MOCLDY    58  40  51 NW14      29.86S
6HR MIN TEMP:  57; 6HR MAX TEMP:  61;

HIBBING        LGT RAIN  49  45  86 W13G24    29.74S
6HR MIN TEMP:  48; 6HR MAX TEMP:  50; 6HR PCP:  0.02;

ALEXANDRIA     CLEAR     59  33  37 NW16G25   29.93S
6HR MIN TEMP:  59; 6HR MAX TEMP:  65;

SAINT CLOUD    CLEAR     59  37  44 NW13      29.88S
6HR MIN TEMP:  59; 6HR MAX TEMP:  64;

MINNEAPOLIS    PTCLDY    61  33  35 NW15      29.88R
6HR MIN TEMP:  61; 6HR MAX TEMP:  66;

$$

  *****  WEATHER ACROSS SOUTH DAKOTA  *****

CITY           SKY/WX    TMP DP  RH WIND       PRES   REMARKS
SIOUX FALLS    CLEAR     66  37  34 NW7       30.03F
6HR MIN TEMP:  66; 6HR MAX TEMP:  72;

BROOKINGS      CLEAR     60  33  36 NW10      30.02S
WATERTOWN      CLEAR     62  34  35 NW12      30.02S
6HR MIN TEMP:  62; 6HR MAX TEMP:  67;

HURON          CLEAR     66  31  27 NW9       30.05S
6HR MIN TEMP:  66; 6HR MAX TEMP:  74;

SISSETON         N/A     63  30  28 NW14G22   29.96S
ABERDEEN       CLEAR     65  32  29 NW16      30.04S
6HR MIN TEMP:  65; 6HR MAX TEMP:  71;

MITCHELL       CLEAR     69  35  28 NW8       30.06F
PIERRE         CLEAR     70  37  29 N13       30.08S
6HR MIN TEMP:  68; 6HR MAX TEMP:  74;

MOBRIDGE       CLEAR     68  33  27 NW14      30.08R
RAPID CITY     CLEAR     68  40  35 N18       30.19F
6HR MIN TEMP:  68; 6HR MAX TEMP:  74;

$$

  *****  SOME WEATHER IN NEARBY STATES *****

CITY           SKY/WX    TMP DP  RH WIND       PRES   REMARKS
GLASGOW MT     PTCLDY    69  44  40 SW3       30.11F
6HR MIN TEMP:  61; 6HR MAX TEMP:  72;

GREAT FALLS MT SUNNY     74  41  30 SW15      30.13F
6HR MIN TEMP:  70; 6HR MAX TEMP:  78;

CHEYENNE WY    CLEAR     70  34  26 N14       30.33R
6HR MIN TEMP:  67; 6HR MAX TEMP:  74;

SCOTTSBLUFF NE CLEAR     73  42  32 N10       30.24S
6HR MIN TEMP:  69; 6HR MAX TEMP:  77;

OMAHA NE       CLEAR     72  42  34 W5        30.05F
6HR MIN TEMP:  72; 6HR MAX TEMP:  77;

DES MOINES IA  CLEAR     68  41  37 W9        30.02F
6HR MIN TEMP:  68; 6HR MAX TEMP:  74;

DAVENPORT IA   CLEAR     65  35  33 W10       29.98S
6HR MIN TEMP:  65; 6HR MAX TEMP:  72;

CHICAGO IL     CLEAR     65  32  29 W15       29.93R
6HR MIN TEMP:  65; 6HR MAX TEMP:  69;

EAU CLAIRE WI  CLEAR     58  38  47 W9        29.83F
6HR MIN TEMP:  58; 6HR MAX TEMP:  62;

LA CROSSE WI   CLEAR     63  34  33 W12       29.87S
6HR MIN TEMP:  63; 6HR MAX TEMP:  70;

$$

  *****  SOME NATIONAL WEATHER *****

CITY           SKY/WX    TMP DP  RH WIND       PRES   REMARKS
LA GUARDIA NY  CLOUDY    69  51  52 S17G24    30.04F
6HR MIN TEMP:  69; 6HR MAX TEMP:  73;

RALEIGH NC     PTCLDY    72  66  81 SE7       30.05R
6HR MIN TEMP:  72; 6HR MAX TEMP:  76;                              C1F1C2F2C3F3C4F4C5F5C6F6C7F7C8F8C9F9CaFaCbFbCcFcCdFdCe!



USA.gov is the U.S. government's official web portal to all federal, state and local government web resources and services.